www.pogodaiklimat.ru

АРХИВ ПОГОДЫ в Шарлотте

Время (UTC), дата Ветер
(напр.,м/с)
 
Видим.   Явления Облачность Т
(С)
Тd
(С)
f
(%)
Тe
(С)
Тes
(С)
Комфортность

P
(гПа)

Po
(гПа)
Тmin
(С)
Tmax
(С)
R
(мм)
SD
(см)
05:52 13.08 СВ  16 км    8/8 270 м
[средняя] 
+22.8  +21.1  90  +30  +30  очень
душно 
1016.3  989.9         
06:52 13.08 В  16 км    10/10 270 м  +22.8  +21.1  90  +30  +30  очень
душно 
1016.5  990.3         
07:52 13.08 СВ  13 км    10/10 300 м  +22.0  +21.0  94  +28  +28  душно  1016.7  990.3         
08:37 13.08 нст  16 км    10/10 270 м  +23.0  +21.0  89  +31  +31  очень
душно 
  989.9         
08:52 13.08 СВ  16 км    10/10 330 м  +22.2  +20.6  91  +29  +29  очень
душно 
1016.3  989.9         
09:52 13.08 СВ  16 км    10/10 330 м  +22.2  +20.6  91  +29  +29  очень
душно 
1016.4  989.9         
10:16 13.08 С  16 км    10/10 330 м  +22.2  +20.6  91  +29  +29  очень
душно 
  990.3         
10:52 13.08 С  16 км    8/8 300 м  +23.0  +21.0  89  +31  +31  очень
душно 
1016.9  990.3  +22.2       
11:52 13.08 СВ  16 км    8/8 360 м  +23.9  +20.6  82  +30  +30  очень
душно 
1017.2  990.9         
12:52 13.08 СВ  16 км    8/8 450 м  +25.6  +21.1  76  +32  +33  очень
душно 
1017.6  991.3         
13:52 13.08 В  16 км    8/8 660 м  +26.7  +20.6  69  +33  +35  очень
душно 
1017.7  991.3         
14:52 13.08 ЮВ  16 км    8/8 840 м
[верхняя] 
+27.8  +21.1  67  +35  +38  очень
душно 
1017.7  991.3         
15:52 13.08 штиль  16 км    8/8 840 м
[верхняя] 
+29.4  +20.0  57  +36  +40  очень
душно 
1017.0  990.6         
16:52 13.08 СЗ  16 км    8/5 1020 м
[верхняя] 
+29.0  +21.0  62  +36  +43  очень
душно 
1016.3  989.9  +22.8       
17:52 13.08 штиль  16 км    8/5 1140 м
[верхняя] 
+30.6  +20.6  55  +38  +49  очень
душно 
1015.7  989.6         
18:52 13.08 СЗ  16 км    5/5 1260 м
[верхняя] 
+31.0  +21.0  55  +38  +46  очень
душно 
1015.1  989.0         
19:52 13.08 СЗ  16 км    5/5 1350 м
[верхняя] 
+31.0  +20.0  52  +37  +43  очень
душно 
1014.4  988.3         
20:52 13.08 З  16 км    2/2 1350 м
[верхняя] 
+30.0  +20.0  55  +36  +43  очень
душно 
1014.2  988.0         
21:52 13.08 З  16 км    2/2 1260 м  +28.9  +20.6  61  +36  +39  очень
душно 
1013.9  987.6         
22:52 13.08 ЮЗ  16 км    2/2 1200 м
[средняя] 
+28.0  +21.0  66  +35  +36  очень
душно 
1014.4  988.0  +27.8  +31.1     
23:52 13.08 штиль  16 км    2/2 1080 м
[средняя] 
+26.0  +21.0  74  +33  +33  очень
душно 
1015.0  988.6         
00:52 14.08 ЮЗ  16 км    2/0 3000 м
[средняя] 
+25.0  +21.7  82  +32  +32  очень
душно 
1015.7  989.3         
01:52 14.08 штиль  16 км    2/0 3000 м
[средняя] 
+25.0  +22.0  83  +32  +32  очень
душно 
1015.6  989.3         
02:52 14.08 штиль  14 км    2/0 3000 м
[средняя] 
+23.9  +22.2  90  +31  +31  очень
душно 
1015.9  989.6         
03:52 14.08 штиль  16 км    2/0 2100 м
[средняя] 
+23.0  +23.0  100  +32  +32  очень
душно 
1015.7  989.6         
04:52 14.08 С  11 км    2/0 2400 м
[средняя] 
+23.0  +22.0  94  +31  +31  очень
душно 
1015.4  989.3  +22.2       
05:52 14.08 Ю  13 км  слабый дождь  8/0 3000 м
[средняя] 
+23.0  +22.0  94  +31  +31  очень
душно 
1015.0  988.6         
06:52 14.08 З  13 км    5/0 2850 м
[средняя] 
+22.0  +22.0  100  +29  +29  очень
душно 
1014.9  988.6         
07:52 14.08 штиль  11 км    5/0 2850 м
[средняя] 
+21.7  +21.7  100  +28  +28  душно  1014.7  988.6         
08:52 14.08 СЗ  13 км    2/0 3000 м
[средняя] 
+21.7  +21.1  96  +28  +28  душно  1015.1  988.6         
09:52 14.08 СЗ  11 км    8/5 1650 м
[средняя] 
+22.0  +21.0  94  +28  +28  душно  1015.7  989.3         
10:52 14.08 штиль  11 км    2/2 1800 м
[средняя] 
+23.0  +22.0  94  +31  +31  очень
душно 
1016.1  989.9  +21.1  +23.3     
11:52 14.08 СЗ  16 км    2/2 1800 м
[средняя верхняя] 
+24.0  +22.0  89  +31  +32  очень
душно 
1016.7  990.3         
12:52 14.08 нст  13 км    2/2 1800 м
[средняя верхняя] 
+26.0  +22.0  79  +34  +37  очень
душно 
1016.6  990.3         
13:52 14.08 штиль  14 км    2/2 600 м
[верхняя] 
+29.0  +21.0  62  +36  +46  очень
душно 
1016.5  990.3         
14:52 14.08 З  16 км    2/2 1050 м
[верхняя] 
+30.0  +18.9  51  +35  +44  очень
душно 
1016.4  990.3         
15:52 14.08 нст  16 км    5/2 1260 м
[верхняя] 
+31.0  +18.0  46  +35  +49  очень
душно 
1016.0  989.9         
16:52 14.08 З  16 км    5/2 1440 м
[верхняя] 
+31.1  +18.9  48  +36  +47  очень
душно 
1015.8  989.6  +22.8  +31.7     
17:52 14.08 нст  16 км    5/5 1650 м
[верхняя] 
+31.7  +18.3  45  +36  +44  очень
душно 
1015.1  989.0         
18:52 14.08 нст  16 км    5/5 1650 м
[средняя] 
+31.7  +18.9  47  +37  +44  очень
душно 
1014.6  988.3         
19:52 14.08 нст  16 км    5/2 1650 м
[средняя] 
+32.0  +18.0  43  +36  +42  очень
душно 
1014.3  988.0         
20:52 14.08 ЮЗ  16 км    2/2 1560 м
[верхняя] 
+31.0  +19.0  49  +36  +40  очень
душно 
1014.6  988.3         
21:52 14.08 ЮЗ  16 км    5/2 1800 м
[средняя верхняя] 
+30.0  +19.0  52  +35  +37  очень
душно 
1014.7  988.3         
22:52 14.08 ЮЗ  16 км    5/2 1800 м
[средняя верхняя] 
+28.0  +19.0  58  +33  +34  очень
душно 
1014.8  988.6  +27.8  +31.7     
23:52 14.08 штиль  16 км    5/0 3000 м
[средняя верхняя] 
+25.6  +19.4  69  +31  +31  очень
душно 
1015.5  989.3         
00:52 15.08 ЮЗ  16 км    5/0 3300 м
[средняя] 
+25.0  +19.4  71  +30  +30  душно  1016.2  989.9         
01:52 15.08 Ю  16 км    8/0 3300 м
[средняя] 
+25.0  +20.6  77  +31  +31  очень
душно 
1016.4  990.3         
02:52 15.08 штиль  16 км    8/0 3300 м
[средняя] 
+22.8  +21.1  90  +30  +30  очень
душно 
1016.8  990.6         

 

Местоположение метеостанции Charlotte / Douglas International Airport: широта 35.2133 долгота -80.9486 высота над уровнем моря 228 м.

В архиве по умолчанию представлена погода в Шарлотте за последние 1-2 суток. Обновление информации о фактической погоде в базе происходит ежечасно! Архивные данные за месяц целиком и за предыдущие месяцы Вы можете получить, выбрав интересующий диапазон дат из раскрывающегося списка и нажав кнопку "Ввод!".

Внимание! Архив погоды МЕТАР в базе сайта в настоящее время начинается c 1 января 2013 г. Нет смысла пытаться выбрать более раннюю дату.

Внимание! Время в таблицах - всемирное. Для получения местного времени необходимо прибавить поправку, которая в Шарлотте равна -5 ч.

Ветер - указаны скорость ветра в м/с и направление, откуда дует ветер: С - северный, СВ - северо-восточный, В - восточный, ЮВ - юго-восточный, Ю - южный, ЮЗ - юго-западный, З - западный, СЗ - северо-западный.
Видимость - горизонтальная дальность видимости в метрах или километрах. При видимости от 1 до 10 км при отсутствии осадков обычно наблюдается дымка, при ухудшении видимости до 1 км и менее - туман. В сухую погоду видимость может ухудшаться дымом, пылью или мглою.
Атмосферные явления - указаны явления, наблюдавшиеся в указанный момент времени.
Облачность - указаны через наклонную черту верхняя и нижняя облачность в баллах и высота нижней границы облаков в метрах. Внимание: облачность, как и прочие метеорологические величины в США измеряются автоматическими метеостанциями. Указанные значения в баллах носят условный характер и показывают процент времени, в течение которого, в среднем, лазерный луч высотомера отражался от облаков обратно.
T - Температура воздуха - температура, измеренная на высоте 2 м над землей.
Td - Температура точки росы - температура, при понижении до которой содержащийся в воздухе водяной пар достигнет насыщения.
f - Относительная влажность воздуха - влажноcть воздуха, измеренная на высоте 2 м над землей.
Te - Эффективная температура - температура, которую ощущает одетый по сезону человек в тени. Характеристика душности погоды. При расчете учитывается влияние влажности воздуха и скорости ветра на теплоощущения человека.
Tes - Эффективная температура на солнце - температура, которую ощущает человек, с поправкой на солнечный нагрев. Характеристика знойности погоды. Зависит от высоты солнца над горизонтом, облачности и скорости ветра. Ночью, в пасмурную погоду, а также при ветре 12 м/с и более поправка равна нулю.
P - Атмосферное давление - приведенное к уровню моря атмосферное давление.
Po - Атмосферное давление - измеренное на уровне метеостанции атмосферное давление.
Tmin - Минимальная температура - минимум температуры воздуха на высоте 2 м над землей.
Tmax - Максимальная температура - максимум температуры воздуха на высоте 2 м над землей.
R - Количество осадков - Количество выпавших осадков за 3 или 6 часов, мм.
SD - Снежный покров - Высота снежного покрова, см.